Location: La Silve
(44.2414°N, 5.8889°E)
Time: 05:18:09
(UTC+00:00)

Cosmos 1656 Rocket - Pass Details

Date: 01 December 2020
Orbit: 796 x 846 km, 71.1° (Epoch: 27 January)

Event Time Altitude Azimuth Distance (km) Brightness Sun altitude
Rises 17:03:04 0° 341° (NNW) 3,405 6.9 -11.3°
Reaches altitude 10° 17:05:48 10° 351° (N) 2,461 6.0 -11.7°
Maximum altitude 17:10:50 32° 54° (NE) 1,391 4.3 -12.6°
Drops below altitude 10° 17:15:47 10° 117° (ESE) 2,421 5.7 -13.4°
Enters shadow 17:17:19 - 124° (ESE) 2,942 6.2 -13.7°
